Wetbulb
44.22 44.17 44.22 44.01 43.84 43.47 42.78 42.43 41.97 41.88 41.74 41.87 42.25 42.75 43.20 43.73 43.57 43.89 44.43 46.81 43.40 40.48 37.98 39.38 38.59 34.93 35.11 34.80 30.13 35.04 33.91 34.48 32.70 29.36 29.38 27.81 26.44 27.54 26.86 28.03 26.43 24.53 22.40 21.85 22.55 18.48 15.59 31.50 31.21 25.23 29.20 34.45 35.79 35.51
44.47 44.66 44.02 43.73 43.84 43.48 42.88 42.29 41.84 41.45 41.57 41.62 41.95 42.41 42.97 43.59 43.71 44.32 42.67 46.41 46.03 43.03 39.14 43.21 42.36 42.66 41.37 40.41 36.14 38.48 34.59 34.56 36.10 30.78 31.88 31.37 27.72 29.25 26.63 22.19 30.86 22.91 26.85 23.10 24.76 23.51 31.25 32.36 31.07 32.54 33.38 33.62 34.35 34.83
44.47 44.67 44.38 43.73 43.56 43.30 43.08 42.50 42.03 41.28 41.32 41.52 41.65 42.15 42.63 43.29 43.73 43.51 44.03 44.96 45.28 42.35 40.54 38.97 37.82 42.83 45.28 45.09 45.50 35.90 38.59 39.60 38.21 39.98 36.30 33.66 28.82 30.86 23.96 24.76 27.52 31.49 32.77 27.11 27.97 30.06 31.25 32.51 35.05 34.69 34.70 34.20 36.12 36.00
44.55 44.68 44.67 43.95 43.54 43.06 42.97 42.64 42.36 41.39 40.99 41.29 41.69 41.77 42.33 42.98 43.45 44.00 43.72 44.85 44.02 41.95 36.77 36.21 44.32 41.58 45.64 46.01 45.12 45.21 42.36 44.42 43.33 41.38 37.31 33.77 29.70 35.08 28.70 29.64 29.19 31.10 31.99 28.67 27.69 30.66 32.80 33.58 34.71 35.52 36.10 36.84 36.42 37.75
44.49 44.68 44.47 44.35 43.90 43.42 43.15 42.76 42.54 41.61 40.76 41.01 41.57 41.54 42.64 43.33 43.59 44.97 46.42 44.85 44.51 40.63 35.88 36.53 41.72 43.47 44.83 44.87 43.81 44.70 44.32 42.17 39.47 37.35 35.36 32.25 35.40 34.53 33.18 31.41 28.98 33.28 30.50 27.69 26.98 32.30 32.01 33.47 35.69 36.75 36.32 35.79 36.85 36.01
44.43 44.55 44.35 44.45 44.06 43.79 43.41 43.04 42.56 41.65 40.72 40.94 41.31 41.47 42.65 43.00 43.24 44.22 35.46 44.53 43.63 44.51 39.84 34.31 41.25 40.88 42.93 43.51 42.94 42.25 43.09 41.11 40.85 39.06 35.82 36.31 39.38 35.60 28.99 26.51 32.63 34.68 35.92 36.24 32.98 36.29 36.01 36.63 37.69 38.00 37.08 37.27 37.37 37.56
44.36 44.34 44.15 44.43 44.48 43.99 43.79 43.24 42.40 41.63 40.86 40.76 41.12 41.49 42.13 42.62 45.14 40.57 38.02 39.88 41.63 44.69 40.16 34.91 34.69 40.15 42.64 42.12 41.74 41.71 43.00 41.31 40.22 38.14 36.37 35.26 35.23 36.11 32.26 26.89 33.13 35.52 36.53 36.78 37.86 37.28 34.56 36.46 35.21 38.58 38.64 39.01 39.58 38.86
44.25 44.21 44.02 44.39 44.48 44.19 44.07 43.29 42.44 41.65 40.92 40.67 41.07 41.72 42.00 42.28 40.90 43.27 43.22 42.16 41.93 43.05 41.68 33.83 33.33 36.54 41.78 37.45 37.23 41.36 38.99 39.64 40.11 37.57 37.55 34.28 35.11 34.29 28.18 32.73 34.99 36.25 36.75 36.75 37.15 38.01 37.46 38.13 38.05 37.70 38.75 38.94 37.43 37.06
43.97 43.91 43.75 44.01 44.32 44.44 44.28 43.28 42.59 41.66 40.92 40.61 40.45 41.44 43.58 42.82 37.13 41.85 40.91 41.01 45.31 41.38 37.04 34.92 31.38 30.47 40.38 38.61 39.07 39.53 39.82 35.65 38.80 35.27 34.37 34.86 31.50 27.60 31.69 33.36 34.66 36.01 35.76 36.19 37.77 37.94 37.87 36.74 36.71 37.51 37.83 38.31 37.03 37.02
43.66 43.54 43.57 43.87 44.05 44.44 44.35 43.53 42.70 41.62 40.62 39.64 42.91 35.59 32.72 39.51 40.01 42.51 42.19 35.98 35.26 36.30 40.90 35.22 37.50 33.26 37.27 37.55 36.19 36.07 37.90 34.07 30.84 33.50 37.62 33.78 29.99 34.69 36.13 36.78 37.24 37.53 38.02 38.30 35.64 34.57 35.98 35.86 36.39 36.72 37.13 38.52 38.46 38.41
43.89 43.73 43.64 43.92 44.20 44.31 44.40 43.53 42.61 41.66 39.54 38.61 32.72 35.10 43.00 40.82 42.18 39.30 32.09 33.85 35.78 32.15 36.40 37.01 35.74 34.04 39.11 33.59 33.41 36.47 33.61 33.64 27.49 31.20 30.73 29.68 29.13 33.45 37.08 36.91 38.33 38.53 39.04 39.00 39.16 39.24 39.00 38.44 37.64 37.52 37.84 39.12 39.17 39.57
44.09 43.84 43.83 43.90 44.09 44.42 44.41 43.61 42.69 41.91 39.69 38.74 40.64 42.72 42.83 39.28 35.60 30.84 29.66 32.31 31.48 31.07 35.76 34.52 36.01 37.02 37.57 38.90 35.30 35.58 30.94 32.18 25.73 35.23 30.23 26.25 33.43 36.50 37.02 37.48 38.46 38.94 39.28 39.08 39.87 39.12 39.53 39.46 39.55 39.06 38.92 38.53 39.08 39.73
43.88 43.80 43.99 43.90 44.14 44.54 44.36 43.82 42.59 43.09 40.75 42.09 38.54 34.34 34.30 33.59 26.20 24.37 22.80 27.36 30.52 35.37 36.32 36.23 33.69 36.85 37.02 37.51 34.45 32.44 27.13 27.25 35.05 29.66 27.05 31.44 36.67 37.18 37.55 38.53 38.68 39.56 39.76 39.53 39.04 39.61 39.82 39.55 40.35 40.17 39.30 39.82 40.43 39.84
43.63 43.71 44.01 43.93 44.00 44.52 44.27 43.72 42.59 41.18 40.18 35.82 31.17 25.67 27.75 26.91 27.90 30.76 32.04 33.89 37.78 37.87 36.93 37.40 35.94 35.18 36.44 32.99 32.97 26.71 30.78 31.08 25.33 24.28 26.52 35.77 37.15 37.77 38.51 39.02 38.00 37.93 38.70 38.64 38.76 39.22 39.48 39.70 39.42 41.15 41.97 41.49 37.01 40.31
43.73 43.83 44.03 43.78 44.04 44.45 44.03 43.56 41.83 41.65 39.25 32.90 32.98 25.47 28.32 33.63 36.41 36.80 37.74 38.51 38.95 40.03 38.24 36.16 36.10 35.78 33.30 30.85 31.72 30.08 25.82 23.04 26.69 27.15 32.83 36.93 38.38 38.22 38.04 38.59 38.51 38.45 38.67 38.70 39.21 38.94 39.51 40.32 40.09 39.87 41.38 42.22 41.30 37.08
43.82 43.65 42.83 43.50 44.09 44.54 43.83 42.22 40.86 41.08 38.03 34.60 33.48 30.50 33.97 33.32 35.50 35.62 35.67 36.05 39.95 39.31 38.99 37.84 33.36 29.69 28.62 30.31 27.40 25.43 25.25 24.51 29.77 35.09 39.22 38.74 37.92 38.61 38.51 38.89 39.08 39.46 39.28 39.30 39.67 39.76 39.83 39.81 39.26 39.58 40.77 40.53 34.47 34.25
43.21 41.09 43.07 43.69 43.81 43.87 42.17 39.12 38.85 35.59 34.11 32.40 32.12 36.42 35.16 36.14 35.69 36.00 37.21 37.16 40.94 37.44 32.68 33.76 28.69 26.99 32.82 28.04 26.76 31.33 28.56 33.07 37.99 39.76 39.09 39.00 38.62 38.90 39.58 39.58 39.52 39.53 39.53 39.60 39.83 39.78 39.89 40.55 40.44 39.86 38.67 39.88 40.46 39.93
41.35 43.35 43.53 43.72 43.83 40.83 35.72 38.41 36.81 34.60 30.59 33.10 32.23 35.38 36.73 37.54 37.17 37.77 39.20 39.08 38.18 35.99 35.51 32.13 35.22 29.13 26.95 25.50 28.18 34.07 37.37 40.07 41.25 39.60 39.63 39.85 40.22 40.19 40.09 39.63 40.07 40.17 39.93 40.08 40.22 40.14 39.95 39.33 38.94 39.09 39.76 40.63 39.97 39.13
42.62 43.16 43.54 43.54 40.13 36.41 32.82 33.40 36.52 31.51 32.26 34.99 36.87 37.53 38.43 38.68 39.50 40.25 40.07 40.11 39.96 40.26 37.65 34.96 30.71 28.69 30.26 34.37 34.87 37.00 38.54 39.55 39.23 40.26 40.48 40.68 40.82 40.42 40.30 40.46 40.48 40.20 40.25 40.30 40.19 39.55 39.59 39.72 39.51 39.68 39.42 39.07 37.36 36.93
43.38 43.18 43.42 42.19 41.21 34.67 33.38 34.29 38.41 33.95 31.32 34.56 36.61 35.79 37.04 37.66 39.47 39.31 38.98 39.28 38.33 36.97 33.26 31.48 31.89 34.31 35.71 37.35 38.75 38.57 39.40 40.48 40.05 39.01 39.22 40.45 40.87 40.71 40.74 41.25 40.63 41.18 40.93 40.91 40.68 34.11 39.27 38.72 38.99 38.90 37.91 36.46 34.91 34.00
42.20 42.51 42.01 40.74 37.22 36.52 36.10 34.98 33.69 34.94 35.13 33.03 36.64 36.75 35.38 38.60 37.85 37.53 37.73 40.24 36.29 34.26 32.33 35.54 37.18 39.37 41.05 41.19 41.48 41.43 41.15 40.61 39.21 39.32 39.13 38.84 41.31 41.00 40.78 41.40 41.72 41.40 40.57 40.48 40.26 39.03 36.50 37.75 38.63 39.21 38.08 37.40 36.48 35.13
40.20 41.24 35.21 34.24 32.17 31.99 32.99 36.70 35.81 37.90 35.84 35.01 35.27 36.84 33.79 34.58 35.14 36.19 39.72 35.84 34.76 36.51 37.98 38.01 39.08 39.91 39.96 40.22 41.18 41.82 42.18 42.10 42.06 40.94 35.77 37.58 38.38 38.96 39.55 40.72 40.87 40.30 40.95 41.90 42.09 41.28 40.12 38.90 39.24 38.93 37.74 37.27 34.00 33.95
39.38 36.94 33.59 32.36 31.63 31.22 31.28 38.75 33.52 34.51 31.10 31.82 34.40 31.30 31.62 33.06 35.39 38.36 33.16 35.40 36.80 40.35 40.94 40.65 40.57 41.56 40.83 42.04 42.43 42.49 42.78 42.14 40.68 40.89 40.38 40.70 41.17 41.29 41.31 42.38 43.81 41.82 40.57 41.44 42.97 41.61 40.39 36.31 35.71 37.73 36.37 35.21 34.45 33.19
37.36 32.51 31.45 30.98 31.86 30.09 34.05 32.27 34.11 32.03 32.78 31.42 30.29 28.19 30.50 33.07 36.27 33.31 30.75 33.91 37.80 40.40 39.48 39.68 40.18 39.38 40.41 41.18 39.80 40.04 41.42 42.37 40.97 40.77 41.19 40.91 40.06 40.48 41.44 41.13 41.61 42.18 42.84 42.80 41.76 40.68 39.03 37.97 34.89 34.76 34.15 32.36 31.99 31.13
30.25 29.79 31.09 29.12 32.66 30.59 28.82 29.22 30.10 30.16 28.05 29.84 28.86 29.20 31.80 35.23 29.95 28.70 28.97 33.77 36.17 37.41 39.20 39.58 40.04 39.98 38.69 39.27 40.23 41.02 43.41 42.03 39.72 38.67 40.46 41.65 40.78 40.70 40.18 40.80 41.47 42.76 43.74 41.73 39.72 36.40 35.53 35.44 34.35 33.81 32.43 31.81 30.75 29.95
27.19 30.32 29.41 30.79 30.88 29.28 29.02 26.87 28.06 28.41 29.25 28.82 29.66 33.05 34.26 30.97 27.74 26.81 29.92 32.79 34.74 37.69 37.20 38.54 39.58 39.86 39.44 40.51 39.29 40.19 41.33 43.21 41.70 39.08 39.90 42.04 41.28 39.54 38.79 38.22 38.80 40.69 43.07 41.92 39.74 34.71 35.61 33.97 32.09 32.82 32.16 31.22 30.59 29.75
27.38 29.32 31.96 36.45 34.72 32.99 31.02 32.45 32.51 30.32 28.43 28.00 29.47 30.44 29.91 25.97 26.54 31.48 33.57 35.65 36.92 41.04 43.57 43.08 42.07 40.80 40.41 41.12 42.23 42.47 43.07 43.55 41.93 40.99 42.13 43.28 42.92 43.22 41.40 39.33 38.43 41.55 42.42 40.71 39.13 35.15 34.50 33.98 33.07 32.81 31.83 31.72 31.04 30.28
32.16 33.18 28.49 31.27 32.77 33.55 30.16 30.14 29.20 28.52 29.67 32.95 31.65 27.81 27.47 28.16 29.52 33.41 34.78 39.45 39.46 42.90 43.58 44.33 44.51 43.88 42.66 42.33 42.80 42.26 41.65 40.26 38.39 40.10 39.93 40.99 41.78 42.23 42.46 42.31 43.01 35.06 41.63 39.91 37.07 34.89 34.89 34.17 33.26 32.61 32.15 31.35 30.74 30.55
31.72 34.65 34.24 29.64 31.01 32.41 31.58 30.80 30.79 33.33 35.85 33.97 30.27 29.08 30.86 34.78 40.68 39.16 38.53 40.49 44.27 43.61 41.22 40.30 39.61 38.34 41.52 38.70 39.06 40.53 40.33 38.66 36.27 33.04 32.30 33.23 34.71 36.31 40.92 41.84 40.37 39.44 39.62 36.07 34.03 34.57 34.85 34.27 33.00 32.30 32.77 31.83 31.44 30.83
31.51 36.18 31.80 30.90 28.81 29.21 32.83 35.73 34.74 36.73 37.79 37.15 37.05 35.95 35.96 37.77 39.98 41.68 39.16 39.66 39.43 36.53 36.34 35.80 35.80 34.53 34.53 34.35 34.17 34.17 35.08 35.80 36.02 34.96 33.12 32.72 34.19 37.17 36.71 36.89 35.62 35.80 35.80 34.89 34.85 34.17 31.45 32.59 31.50 31.84 30.98 31.34 31.00 28.13
35.16 34.49 32.77 31.66 30.72 33.27 36.55 36.05 35.26 38.06 37.27 36.47 36.52 34.51 34.12 35.77 39.10 41.38 39.39 39.19 37.25 34.35 34.17 33.81 33.44 33.26 33.08 33.08 33.26 32.54 32.31 33.99 34.71 35.62 35.98 35.98 35.62 35.08 35.62 35.98 35.62 35.08 34.53 34.17 33.44 32.75 31.86 31.38 30.30 30.19 30.33 29.58 28.61 26.85
33.64 32.29 30.81 29.39 31.22 33.08 34.89 33.08 33.26 33.91 33.91 33.47 33.49 35.16 34.09 32.72 32.56 36.69 39.82 36.91 34.89 34.17 34.35 34.12 33.81 33.92 34.89 35.72 35.24 35.08 34.09 34.86 34.35 34.47 34.89 34.71 34.71 35.26 35.44 36.65 35.26 34.53 33.82 33.13 33.08 32.20 31.14 30.42 30.12 29.95 29.35 28.65 28.02 26.70
31.80 33.31 33.04 32.15 29.88 29.80 31.63 32.54 31.91 31.68 32.60 31.79 32.98 34.14 34.02 33.04 30.98 36.50 41.42 39.80 36.94 36.08 36.02 36.30 36.42 36.32 36.31 36.01 35.74 35.54 35.64 35.64 35.54 33.89 33.61 34.02 34.44 34.71 35.04 34.53 34.35 33.81 33.01 32.35 32.37 31.53 30.50 29.97 29.83 29.74 29.20 29.03 28.23 27.42
MSLP
1026.76 1027.27 1027.58 1027.99 1028.31 1028.45 1028.60 1028.69 1028.71 1028.55 1028.66 1028.48 1028.38 1028.01 1027.66 1027.35 1026.64 1026.11 1025.58 1025.56 1025.15 1024.47 1024.08 1024.00 1023.88 1023.42 1022.92 1022.45 1021.97 1020.88 1018.79 1018.90 1018.78 1017.98 1018.18 1018.51 1018.83 1019.17 1019.16 1019.49 1018.95 1018.30 1018.41 1018.82 1019.69 1020.28 1021.80 1021.95 1019.93 1020.14 1022.29 1021.22 1020.33 1019.65
1026.74 1027.28 1027.66 1028.10 1028.34 1028.53 1028.73 1028.86 1028.82 1028.81 1028.98 1028.81 1028.73 1028.34 1028.19 1027.85 1027.07 1026.49 1025.61 1025.53 1025.71 1025.14 1024.12 1024.09 1023.90 1023.98 1023.67 1023.45 1023.16 1021.61 1021.82 1021.27 1021.00 1020.78 1020.37 1020.09 1020.50 1020.81 1020.77 1020.36 1020.94 1020.54 1021.76 1022.16 1022.51 1024.11 1024.81 1024.15 1023.52 1023.25 1022.77 1022.04 1021.31 1020.55
1026.69 1027.31 1027.69 1028.15 1028.40 1028.64 1028.82 1028.95 1029.02 1029.13 1029.17 1029.13 1028.99 1028.73 1028.64 1028.23 1027.74 1027.56 1026.23 1026.00 1025.56 1025.16 1023.67 1023.87 1023.86 1023.77 1023.64 1023.06 1023.13 1022.92 1022.29 1021.65 1021.26 1021.53 1021.30 1021.13 1021.44 1021.92 1021.81 1022.30 1022.05 1022.65 1022.62 1022.88 1023.40 1024.70 1024.80 1024.63 1024.33 1024.01 1023.50 1022.94 1022.49 1021.87
1026.68 1027.23 1027.69 1028.14 1028.46 1028.76 1028.85 1029.09 1029.21 1029.42 1029.36 1029.44 1029.18 1029.06 1028.93 1028.49 1028.01 1027.68 1026.64 1026.57 1026.32 1025.74 1025.01 1024.32 1023.92 1023.72 1023.44 1022.92 1022.48 1022.56 1022.33 1021.78 1021.45 1021.23 1021.52 1021.89 1021.93 1022.46 1022.90 1023.64 1022.96 1023.51 1023.33 1023.88 1024.41 1024.74 1024.87 1025.01 1024.74 1024.52 1024.11 1023.49 1022.89 1022.24
1026.51 1027.15 1027.66 1028.14 1028.51 1028.80 1028.90 1029.22 1029.43 1029.54 1029.58 1029.58 1029.41 1029.32 1029.10 1028.60 1028.26 1027.77 1026.71 1027.11 1026.95 1026.86 1025.83 1024.44 1024.01 1023.96 1023.48 1023.11 1022.71 1022.43 1022.08 1021.96 1021.96 1021.95 1021.98 1022.05 1022.65 1022.74 1023.66 1023.69 1023.83 1024.31 1024.44 1024.25 1024.78 1025.38 1025.31 1025.35 1025.06 1024.68 1024.12 1023.78 1023.24 1022.61
1026.42 1027.02 1027.60 1028.13 1028.49 1028.81 1029.04 1029.34 1029.59 1029.56 1029.78 1029.65 1029.58 1029.52 1029.17 1028.65 1028.32 1027.84 1027.86 1027.44 1027.85 1027.03 1026.55 1024.88 1024.14 1024.12 1023.44 1023.38 1022.92 1022.74 1022.74 1022.35 1022.47 1022.25 1022.54 1022.75 1022.48 1022.73 1023.88 1023.99 1024.76 1024.70 1024.61 1024.83 1024.95 1025.03 1024.92 1024.75 1024.39 1024.23 1024.08 1023.63 1023.32 1022.65
1026.29 1026.92 1027.56 1028.07 1028.48 1028.80 1029.13 1029.45 1029.64 1029.75 1029.84 1029.65 1029.71 1029.61 1029.23 1028.75 1027.56 1028.54 1028.92 1029.05 1028.75 1027.77 1026.92 1025.38 1024.02 1024.15 1023.71 1023.37 1023.39 1022.98 1023.08 1022.89 1022.87 1023.20 1022.88 1023.14 1023.50 1023.88 1023.91 1023.85 1024.30 1024.56 1024.70 1024.76 1024.67 1024.59 1024.31 1024.16 1024.08 1023.98 1023.78 1023.43 1023.10 1022.77
1026.14 1026.82 1027.45 1028.00 1028.42 1028.82 1029.12 1029.50 1029.68 1029.81 1029.86 1029.70 1029.83 1029.73 1029.29 1028.97 1029.19 1028.77 1028.62 1028.92 1028.80 1027.81 1027.17 1025.85 1024.59 1024.23 1024.19 1023.71 1023.76 1023.61 1023.36 1023.39 1023.16 1023.09 1023.29 1023.57 1023.90 1023.92 1024.12 1024.32 1024.19 1024.00 1024.16 1024.21 1024.13 1023.95 1023.89 1023.78 1023.82 1023.90 1023.80 1023.56 1023.19 1022.96
1025.99 1026.70 1027.32 1027.90 1028.37 1028.81 1029.22 1029.50 1029.74 1029.92 1029.93 1029.88 1029.85 1029.68 1029.02 1028.89 1029.19 1028.66 1029.05 1028.95 1028.20 1027.94 1026.75 1025.38 1024.37 1024.42 1024.41 1023.85 1023.85 1024.02 1024.00 1023.84 1023.87 1023.80 1023.59 1023.98 1024.16 1024.29 1024.39 1024.39 1024.32 1024.23 1024.13 1024.06 1024.11 1024.00 1023.84 1023.77 1023.74 1023.60 1023.66 1023.66 1023.47 1023.43
1025.78 1026.51 1027.20 1027.77 1028.32 1028.76 1029.23 1029.53 1029.79 1030.01 1029.97 1029.92 1029.47 1029.89 1029.57 1029.43 1029.24 1028.82 1028.76 1028.54 1028.34 1027.91 1026.72 1025.41 1024.51 1024.40 1024.89 1024.37 1024.14 1024.32 1024.21 1023.91 1023.58 1023.76 1023.69 1023.71 1024.30 1024.31 1024.24 1024.25 1024.27 1024.21 1023.98 1023.91 1023.85 1024.00 1023.95 1023.93 1023.92 1023.96 1023.80 1023.79 1023.64 1023.72
1025.57 1026.28 1027.02 1027.65 1028.21 1028.67 1029.17 1029.55 1029.83 1030.04 1030.17 1030.13 1030.20 1029.53 1028.52 1028.96 1028.62 1028.48 1028.52 1028.19 1027.42 1026.77 1025.78 1024.76 1024.83 1024.51 1025.06 1025.22 1025.03 1024.99 1024.73 1024.13 1023.69 1023.75 1023.65 1023.33 1023.35 1024.06 1024.05 1024.04 1024.12 1024.18 1024.16 1024.01 1023.91 1023.81 1023.89 1023.99 1023.87 1023.97 1023.95 1023.89 1023.82 1023.75
1025.30 1026.04 1026.81 1027.46 1028.09 1028.60 1029.08 1029.52 1029.82 1029.81 1029.90 1029.86 1029.52 1028.98 1028.86 1028.67 1028.47 1028.36 1027.55 1026.78 1025.96 1024.56 1024.38 1024.20 1024.43 1024.58 1024.92 1025.41 1025.46 1025.13 1024.84 1024.57 1023.87 1023.83 1023.66 1023.22 1023.30 1023.26 1023.57 1023.75 1023.94 1024.09 1024.12 1024.18 1024.10 1024.01 1024.04 1023.93 1023.89 1023.97 1023.92 1024.01 1024.14 1024.06
1024.99 1025.79 1026.59 1027.26 1027.90 1028.46 1028.99 1029.38 1029.69 1029.63 1029.65 1029.63 1029.67 1028.97 1028.67 1028.68 1028.04 1026.98 1025.92 1025.00 1024.14 1023.61 1023.75 1024.07 1024.65 1024.71 1025.22 1025.33 1025.61 1025.50 1025.17 1024.62 1024.31 1024.16 1023.34 1022.53 1022.95 1022.94 1023.17 1023.36 1023.70 1023.92 1024.06 1024.13 1024.11 1024.09 1024.06 1023.96 1023.92 1024.02 1024.09 1024.17 1024.38 1024.41
1024.65 1025.49 1026.31 1027.07 1027.72 1028.32 1028.90 1029.36 1029.81 1029.87 1029.90 1029.33 1029.28 1028.58 1027.86 1027.18 1026.18 1024.58 1023.57 1022.85 1022.76 1022.87 1023.31 1023.67 1024.62 1025.19 1025.31 1025.63 1025.69 1025.66 1025.13 1024.94 1024.14 1023.31 1022.60 1022.09 1022.32 1022.71 1023.04 1023.46 1023.81 1023.83 1023.84 1023.89 1023.91 1023.93 1023.91 1023.94 1024.18 1024.28 1024.32 1024.38 1024.75 1024.76
1024.39 1025.31 1026.11 1026.94 1027.55 1028.22 1028.87 1029.36 1029.83 1029.64 1029.17 1028.75 1028.04 1027.10 1026.01 1025.19 1024.20 1023.60 1022.99 1022.72 1022.82 1022.85 1023.28 1023.81 1024.52 1025.24 1025.40 1025.72 1025.72 1025.39 1025.17 1024.39 1023.19 1022.26 1021.92 1022.02 1022.24 1022.58 1022.97 1023.27 1023.49 1023.62 1023.73 1023.76 1023.85 1023.82 1023.73 1023.71 1023.78 1023.83 1023.77 1023.93 1024.41 1025.43
1024.30 1025.56 1025.96 1026.52 1027.29 1028.05 1028.80 1029.51 1029.94 1029.46 1028.88 1028.06 1027.13 1025.94 1025.13 1024.60 1024.11 1023.93 1023.63 1023.10 1022.92 1023.15 1023.57 1023.86 1024.43 1025.25 1025.33 1025.27 1025.17 1024.82 1023.99 1022.82 1021.80 1021.55 1021.64 1021.84 1022.14 1022.42 1022.74 1022.99 1023.17 1023.31 1023.47 1023.60 1023.67 1023.61 1023.45 1023.45 1023.49 1023.53 1023.53 1023.73 1024.55 1025.28
1024.06 1024.07 1024.87 1026.02 1027.11 1028.05 1028.92 1029.72 1029.71 1029.08 1028.20 1027.06 1025.75 1025.23 1024.81 1024.25 1024.11 1023.90 1023.70 1023.04 1023.10 1023.42 1023.75 1024.16 1024.54 1024.65 1024.85 1024.61 1023.91 1023.04 1022.30 1021.64 1021.25 1021.38 1021.58 1021.64 1021.90 1022.12 1022.32 1022.52 1022.77 1023.05 1023.17 1023.25 1023.31 1023.35 1023.32 1023.33 1023.26 1023.10 1023.00 1023.48 1024.21 1024.61
1023.02 1023.58 1024.52 1025.74 1026.97 1028.31 1029.43 1029.23 1028.74 1028.03 1027.00 1025.99 1025.19 1024.63 1024.49 1024.15 1023.61 1023.37 1023.06 1022.91 1022.96 1023.30 1023.54 1023.66 1023.74 1023.79 1023.77 1023.03 1022.09 1021.62 1021.35 1021.25 1021.36 1021.47 1021.61 1021.62 1021.72 1022.02 1022.26 1022.47 1022.66 1022.82 1022.92 1022.99 1023.06 1023.10 1023.13 1023.08 1022.93 1022.86 1023.07 1023.50 1023.87 1024.47
1022.28 1023.19 1024.11 1025.36 1026.66 1027.72 1028.52 1028.72 1028.09 1026.57 1025.47 1024.95 1024.49 1024.13 1023.66 1023.40 1023.42 1022.98 1022.64 1022.65 1022.62 1022.97 1023.37 1023.35 1023.28 1022.54 1022.08 1021.78 1021.52 1021.20 1021.03 1020.86 1020.92 1021.17 1021.47 1021.69 1021.73 1021.84 1022.04 1022.23 1022.43 1022.60 1022.70 1022.68 1022.66 1022.85 1023.02 1023.19 1023.23 1023.25 1023.54 1024.08 1024.57 1025.01
1022.25 1023.12 1024.00 1025.19 1026.16 1027.05 1027.32 1027.04 1026.77 1025.37 1024.20 1023.89 1023.78 1023.53 1023.21 1022.96 1022.80 1022.70 1022.72 1022.65 1022.60 1022.88 1022.97 1022.43 1021.86 1021.68 1021.34 1021.07 1020.72 1020.60 1020.43 1020.42 1020.59 1020.79 1021.10 1021.44 1021.55 1021.55 1021.62 1021.77 1021.91 1022.08 1022.19 1022.31 1022.41 1022.92 1022.89 1023.32 1023.68 1024.06 1024.32 1024.66 1025.18 1025.61
1022.35 1023.02 1024.31 1025.22 1025.71 1026.06 1025.71 1025.23 1024.58 1023.64 1023.12 1023.22 1023.12 1023.13 1022.72 1022.24 1022.26 1022.34 1022.26 1022.38 1022.40 1022.01 1021.66 1021.38 1021.35 1021.22 1021.16 1020.92 1020.64 1020.42 1020.38 1020.48 1020.58 1020.74 1020.80 1020.88 1021.07 1021.11 1021.08 1021.07 1021.16 1021.35 1021.70 1021.92 1022.24 1022.78 1023.14 1023.40 1023.67 1024.05 1024.56 1024.96 1025.32 1025.68
1021.34 1022.45 1023.99 1025.13 1025.14 1025.20 1024.89 1024.02 1022.76 1022.05 1022.19 1022.20 1022.37 1022.37 1021.97 1021.85 1021.81 1021.93 1022.11 1021.74 1021.33 1020.65 1020.62 1020.83 1020.68 1020.69 1020.63 1020.36 1020.17 1020.14 1020.04 1020.21 1020.32 1020.54 1020.87 1020.94 1020.84 1020.91 1020.93 1021.05 1021.23 1021.35 1021.53 1021.87 1022.13 1022.54 1022.94 1023.37 1023.80 1024.18 1024.67 1025.29 1025.52 1025.78
1021.09 1022.33 1023.43 1023.95 1024.13 1023.65 1022.62 1022.30 1021.93 1021.80 1021.21 1021.19 1021.46 1021.55 1021.40 1021.35 1021.35 1021.60 1021.22 1020.32 1019.93 1019.97 1019.99 1019.95 1019.97 1020.15 1019.98 1019.57 1019.52 1019.23 1019.19 1019.25 1019.51 1019.69 1019.88 1020.10 1020.14 1020.28 1020.39 1020.46 1020.63 1020.96 1021.23 1021.48 1021.76 1022.23 1022.81 1023.43 1023.95 1024.40 1024.88 1025.42 1025.73 1026.12
1020.48 1021.27 1021.67 1021.87 1021.47 1020.84 1020.95 1020.59 1020.30 1020.44 1020.02 1019.95 1020.29 1020.54 1020.21 1020.31 1020.47 1020.21 1019.24 1018.85 1018.70 1019.00 1018.97 1018.79 1019.09 1018.97 1018.86 1018.62 1018.39 1018.24 1018.41 1018.65 1018.78 1019.05 1019.23 1019.50 1019.62 1019.69 1019.84 1019.92 1019.99 1020.16 1020.53 1020.99 1021.40 1022.06 1022.77 1023.58 1024.05 1024.56 1025.01 1025.56 1025.96 1026.37
1019.31 1020.00 1019.97 1019.03 1018.71 1018.95 1018.76 1018.65 1018.73 1018.86 1018.76 1018.95 1019.13 1019.00 1019.08 1019.39 1019.27 1018.82 1018.10 1017.55 1017.66 1017.44 1017.36 1017.73 1017.83 1017.73 1017.61 1017.37 1017.39 1017.44 1017.67 1017.89 1018.14 1018.34 1018.43 1018.69 1018.94 1019.27 1019.43 1019.39 1019.41 1019.46 1019.76 1020.32 1021.11 1022.14 1022.83 1023.43 1024.07 1024.50 1025.04 1025.46 1025.88 1026.19
1016.43 1016.38 1016.10 1015.11 1015.67 1016.14 1016.17 1016.61 1016.94 1017.18 1017.62 1017.71 1017.48 1017.90 1018.46 1018.64 1018.30 1017.16 1016.71 1016.51 1016.32 1016.08 1016.08 1016.27 1016.32 1016.43 1016.43 1016.45 1016.68 1016.85 1017.05 1017.31 1017.52 1017.65 1017.77 1017.99 1018.18 1018.52 1018.77 1018.98 1018.94 1018.95 1019.28 1019.83 1020.68 1021.89 1022.51 1023.30 1023.95 1024.31 1024.76 1025.21 1025.53 1025.85
1013.35 1012.79 1012.73 1012.87 1013.03 1013.75 1014.34 1014.85 1015.63 1016.15 1016.18 1015.89 1016.30 1016.99 1017.42 1017.15 1016.03 1015.51 1015.22 1015.02 1015.04 1014.54 1014.56 1014.97 1015.29 1015.43 1015.41 1015.59 1015.79 1016.16 1016.52 1016.63 1016.74 1016.88 1017.32 1017.45 1017.55 1017.74 1018.04 1018.25 1018.48 1018.59 1018.99 1019.54 1020.28 1021.26 1021.95 1022.61 1023.26 1023.87 1024.36 1024.76 1025.09 1025.50
1010.50 1010.04 1010.30 1011.10 1011.59 1012.16 1012.56 1013.20 1013.62 1013.83 1013.76 1013.86 1014.97 1015.29 1014.87 1014.52 1013.72 1014.08 1013.82 1013.57 1013.48 1013.65 1013.82 1014.17 1014.45 1014.68 1014.92 1015.13 1015.45 1015.82 1016.22 1016.63 1016.87 1016.95 1017.22 1017.41 1017.45 1017.39 1017.43 1017.74 1017.92 1018.14 1018.57 1019.07 1020.00 1020.90 1021.43 1021.95 1022.67 1023.26 1023.71 1024.10 1024.54 1025.01
1008.82 1008.30 1009.41 1009.82 1010.54 1010.70 1010.93 1010.83 1010.89 1011.15 1011.55 1012.09 1012.49 1012.64 1012.06 1012.01 1012.58 1012.91 1013.07 1013.19 1013.20 1013.40 1013.87 1014.04 1014.35 1014.59 1014.81 1015.02 1015.28 1015.51 1015.89 1016.41 1016.96 1017.23 1017.36 1017.48 1017.74 1017.50 1017.18 1017.37 1017.78 1018.03 1018.47 1019.28 1019.85 1020.32 1020.85 1021.57 1022.26 1022.73 1023.05 1023.50 1024.04 1024.60
1007.17 1007.17 1007.85 1008.52 1008.96 1008.78 1008.65 1009.24 1009.85 1010.38 1010.48 1010.68 1011.23 1011.79 1011.84 1011.93 1012.12 1012.14 1012.67 1012.99 1013.26 1013.42 1013.66 1014.19 1014.50 1014.81 1014.91 1015.25 1015.51 1015.81 1015.84 1015.98 1016.08 1016.27 1016.29 1016.43 1016.26 1016.29 1016.83 1017.24 1017.61 1018.02 1018.45 1018.94 1019.58 1020.34 1020.92 1021.44 1021.96 1022.47 1022.87 1023.14 1023.58 1024.11
1006.00 1006.66 1007.18 1007.69 1007.80 1008.00 1008.66 1009.12 1009.73 1009.89 1010.16 1010.30 1010.54 1010.75 1010.84 1011.55 1011.81 1011.62 1011.89 1012.26 1012.73 1013.36 1013.76 1014.10 1014.24 1014.43 1014.69 1014.73 1014.78 1015.00 1015.30 1015.32 1015.37 1015.36 1015.37 1015.36 1015.62 1015.85 1016.07 1016.43 1016.91 1017.54 1018.13 1018.70 1019.25 1019.76 1020.35 1020.85 1021.20 1021.56 1021.97 1022.42 1022.83 1023.34
1005.69 1005.91 1006.31 1006.84 1007.56 1008.34 1008.86 1009.42 1009.58 1009.44 1009.53 1009.72 1009.70 1010.20 1010.80 1011.12 1010.63 1010.56 1010.55 1011.40 1012.04 1012.58 1012.58 1012.79 1012.94 1012.74 1012.64 1012.52 1012.70 1012.87 1012.57 1012.82 1013.54 1013.93 1014.18 1014.57 1014.87 1015.12 1015.41 1015.79 1016.31 1017.07 1017.76 1018.25 1018.62 1019.11 1019.62 1019.97 1020.30 1020.65 1021.05 1021.45 1021.96 1022.43
1005.78 1005.82 1006.23 1006.93 1007.66 1008.14 1008.61 1009.04 1009.03 1008.97 1009.09 1009.01 1008.95 1009.16 1009.47 1009.48 1008.79 1008.66 1008.87 1009.39 1010.05 1010.43 1010.60 1010.74 1010.78 1010.81 1010.75 1011.09 1011.46 1011.74 1012.08 1012.16 1012.20 1012.45 1012.77 1013.19 1013.56 1014.00 1014.51 1014.97 1015.47 1016.13 1016.81 1017.34 1017.68 1018.06 1018.53 1018.98 1019.28 1019.60 1020.01 1020.44 1021.03 1021.47
Wind_Speed
16 13 11 9 8 8 6 6 6 8 9 11 12 14 17 18 19 11 6 7 6 5 11 13 14 16 13 15 10 15 7 18 10 12 10 8 9 12 7 16 12 15 8 8 7 7 11 24 13 11 7 8 11 13
15 13 12 9 9 8 7 5 5 6 7 10 11 14 15 17 19 16 5 5 3 3 6 8 11 13 12 12 9 9 9 12 6 6 8 6 9 7 16 8 13 12 9 6 9 7 3 10 9 10 11 8 14 14
15 13 12 10 9 9 8 6 4 3 5 8 11 13 13 15 16 12 6 6 4 4 2 9 11 10 9 7 5 8 7 10 10 3 3 6 8 10 10 13 9 6 13 12 2 11 11 13 11 14 14 13 11 13
16 14 12 11 10 9 8 6 4 1 4 6 10 12 12 13 15 13 6 7 5 4 1 8 9 11 9 9 11 8 3 10 10 6 5 6 8 10 12 11 14 10 6 7 10 14 6 14 13 12 11 12 17 15
17 14 13 11 10 9 8 6 3 3 2 5 8 11 12 11 12 9 3 6 6 3 4 4 10 10 8 9 12 11 10 9 5 8 8 6 4 7 12 9 14 11 13 9 8 11 7 7 10 12 13 15 15 17
17 15 13 12 10 9 8 6 5 4 0 4 8 10 11 11 9 3 4 6 7 5 2 3 5 9 7 10 7 11 8 6 8 5 7 11 17 5 7 12 14 14 15 11 11 10 11 10 10 10 11 12 14 13
18 16 14 12 10 10 9 7 5 4 1 3 6 9 9 12 4 3 4 5 9 7 2 4 2 5 9 9 7 4 7 4 4 4 7 9 10 7 8 10 11 11 10 9 10 8 9 11 10 12 13 13 14 13
18 17 14 13 11 10 9 8 6 4 1 3 7 8 8 6 2 2 4 5 8 2 3 3 2 4 6 3 3 5 4 4 5 4 5 7 7 4 6 12 11 12 13 13 10 11 11 11 12 11 12 11 14 14
19 17 15 13 12 11 9 9 7 4 1 3 7 8 4 2 2 3 4 7 5 2 3 3 2 2 5 3 3 2 3 2 2 3 5 4 4 4 7 7 8 8 9 8 9 10 11 11 12 12 11 10 12 13
20 17 15 14 12 11 10 9 8 5 1 3 4 3 3 2 2 8 1 4 3 2 3 4 1 3 4 5 3 3 3 1 2 2 2 3 4 3 5 5 5 5 6 8 9 10 10 11 10 11 11 9 8 9
20 18 16 14 13 12 12 11 9 7 2 2 2 0 3 1 3 2 2 2 2 2 4 2 3 2 3 3 3 3 2 3 4 4 4 1 4 6 4 3 3 3 4 6 7 7 7 9 9 8 8 7 8 8
21 19 17 15 14 13 13 13 11 5 3 3 3 3 2 2 0 1 3 2 4 3 5 4 3 2 4 1 2 2 3 3 3 3 2 3 5 8 6 4 2 2 3 5 6 8 8 10 9 8 8 8 7 9
21 20 18 16 15 15 15 14 13 3 6 2 1 1 2 1 3 4 5 4 4 4 5 4 4 1 4 2 1 2 2 3 6 2 3 2 5 5 4 3 2 1 3 4 7 8 8 9 8 10 10 9 7 7
22 20 19 17 16 15 16 14 11 4 3 2 3 3 5 5 6 5 5 5 4 5 7 5 5 2 1 1 0 2 2 3 3 2 4 3 8 4 2 2 3 4 5 6 8 10 10 7 7 7 6 5 3 4
22 20 19 16 17 16 17 15 11 5 2 3 4 5 7 7 3 4 3 3 2 6 5 4 3 3 2 0 2 2 2 4 4 3 2 4 4 3 4 4 4 6 7 7 9 10 10 8 6 8 6 6 4 6
22 16 12 18 18 18 19 13 6 2 3 3 6 5 5 4 4 3 4 5 4 5 4 0 3 1 3 3 5 6 4 5 2 1 2 1 3 3 4 5 5 5 7 7 8 9 10 9 8 10 9 1 5 6
24 6 18 22 20 21 19 4 4 6 5 5 5 6 8 4 5 6 7 7 6 6 5 3 4 5 3 4 5 5 5 4 3 2 1 2 3 4 5 6 5 6 7 8 8 9 9 9 9 10 10 6 4 5
9 10 24 25 19 14 2 3 4 6 8 8 7 5 7 7 6 5 7 8 6 8 8 6 3 9 5 5 6 6 4 3 2 2 3 4 4 5 5 6 7 7 8 8 8 8 9 9 9 6 8 5 2 5
12 14 28 29 12 5 5 5 4 5 9 6 8 7 6 5 8 7 6 7 7 5 6 4 7 7 10 8 8 6 5 5 3 4 5 6 7 6 6 7 7 8 9 9 7 5 6 8 8 5 5 5 4 4
16 25 29 27 17 4 5 4 4 6 5 6 7 8 9 8 7 7 8 8 7 6 7 8 9 8 6 7 7 7 6 5 4 4 5 5 7 8 8 7 7 8 7 8 6 1 4 3 4 2 2 4 3 4
15 15 27 16 5 4 3 4 7 5 5 5 6 8 7 6 8 7 7 8 8 9 9 9 8 8 9 9 8 7 7 7 7 7 7 6 6 7 7 6 7 6 5 5 4 2 3 3 4 3 2 2 2 2
6 18 4 3 3 6 5 6 5 6 5 3 7 8 6 7 6 7 6 10 11 11 9 10 10 9 10 13 11 12 11 11 9 7 7 7 7 6 6 5 5 5 5 5 4 2 3 3 3 2 3 2 1 2
16 5 4 4 5 9 5 9 8 5 8 7 6 7 6 5 4 6 6 8 9 10 9 12 14 15 15 15 14 13 12 12 9 9 8 7 8 7 6 5 5 5 5 5 4 3 3 2 4 2 4 2 3 2
10 6 7 9 9 7 7 8 7 7 8 10 8 5 7 6 4 6 10 10 8 9 12 17 12 11 12 15 13 12 11 9 9 8 8 7 7 7 7 7 6 7 7 6 4 4 4 4 5 4 5 4 2 1
9 9 7 11 9 10 8 10 10 8 6 12 18 10 5 6 6 8 9 3 8 10 11 12 11 12 12 11 10 9 9 8 9 9 7 7 7 6 7 7 7 6 6 5 4 5 5 5 5 6 6 5 5 5
10 10 12 14 11 10 10 11 13 9 8 15 12 9 8 5 7 8 6 9 11 9 10 10 11 11 11 11 10 8 7 7 7 8 7 5 7 7 8 8 7 6 5 5 6 9 8 9 7 7 6 7 6 5
11 12 8 7 8 11 7 11 10 13 12 11 11 8 9 11 10 5 3 8 9 8 8 9 10 11 10 8 7 6 5 7 9 8 4 3 4 7 8 8 10 5 6 6 6 10 11 10 8 8 7 6 6 6
9 10 16 17 12 11 13 13 14 15 12 7 10 14 10 10 7 5 5 3 7 7 7 7 8 8 8 6 4 4 4 3 4 4 3 2 3 4 5 5 5 8 6 7 8 9 9 9 9 9 9 8 7 7
8 10 11 14 16 11 13 15 14 10 9 11 17 18 10 9 2 3 3 3 2 4 4 4 2 2 2 3 2 4 5 7 8 8 9 6 4 6 4 5 4 4 6 8 11 11 11 10 12 11 10 8 7 6
11 10 11 14 15 17 13 9 10 11 9 9 10 11 11 6 5 3 4 3 5 6 6 6 5 5 7 7 6 6 3 5 7 9 9 10 10 5 7 7 6 7 7 8 9 7 7 7 7 8 8 7 7 9
7 10 8 10 13 14 4 5 3 5 9 8 8 12 14 9 3 4 7 5 4 4 5 6 7 8 8 10 10 9 8 8 12 15 11 3 5 8 9 9 8 7 8 9 10 10 11 10 12 13 12 13 13 13
9 12 12 13 8 4 7 6 6 8 8 8 12 8 5 5 15 11 7 6 6 7 11 9 9 10 13 10 8 7 6 5 11 14 19 12 10 9 8 8 9 9 11 12 12 11 16 17 13 14 13 15 15 15
4 6 6 7 5 8 5 8 7 9 7 8 10 11 13 15 20 8 6 10 12 13 13 12 12 12 13 12 12 10 11 8 11 13 14 16 15 12 9 8 9 12 15 14 14 14 18 19 16 17 16 15 16 15
Wind_Direction
168 164 159 152 158 143 125 97 70 51 31 27 17 19 17 1 7 355 74 30 354 352 49 30 23 19 9 7 4 333 354 11 5 20 20 17 21 18 44 30 12 19 37 23 35 40 22 344 359 46 325 320 352 7
166 166 158 162 159 152 143 126 89 59 26 23 13 20 14 1 1 338 41 29 323 311 53 45 53 42 17 30 352 10 32 8 13 2 16 25 29 26 23 38 11 46 45 56 35 55 8 357 16 5 7 9 18 16
164 166 158 168 162 158 153 143 109 67 30 17 13 14 7 359 358 350 11 2 357 305 46 40 27 39 25 29 35 3 7 3 6 125 331 22 60 26 34 23 35 69 30 45 63 53 34 22 21 24 21 24 31 29
167 165 163 171 167 162 150 153 139 126 38 9 14 6 355 355 346 332 38 19 9 322 304 64 45 48 32 19 23 52 226 43 19 32 41 45 48 46 58 47 44 29 42 60 60 26 49 32 21 21 22 21 25 23
166 166 164 170 171 169 156 158 155 149 33 6 7 354 343 347 340 309 28 42 12 347 341 8 45 43 43 23 38 34 35 43 45 45 38 43 114 73 54 55 52 40 45 39 50 45 45 41 35 27 34 35 37 27
166 165 164 171 170 171 166 164 174 144 84 17 359 341 338 339 337 36 32 79 7 341 311 341 102 34 21 52 30 46 56 16 43 27 63 47 33 77 70 67 64 57 63 74 73 74 57 47 51 64 46 35 42 36
167 167 169 170 167 170 170 172 171 156 122 22 339 331 331 343 340 49 24 354 329 302 299 307 68 66 342 74 18 43 51 31 43 21 70 76 74 71 72 76 91 90 82 77 74 64 61 66 47 43 28 38 33 46
168 169 171 171 168 171 170 172 170 170 143 10 328 313 309 322 127 164 81 345 329 323 263 309 0 51 359 32 40 10 37 37 11 52 86 76 59 42 61 59 47 63 68 55 54 57 53 53 71 61 42 29 34 28
169 170 172 172 170 168 168 169 173 169 118 341 311 296 284 342 28 54 320 294 257 301 297 264 333 62 327 348 74 36 347 36 74 28 38 69 64 55 65 66 63 51 44 59 57 30 38 41 33 35 40 29 35 28
170 170 173 172 170 166 167 169 166 160 153 309 325 41 11 258 330 271 27 2 7 296 236 271 271 92 342 323 44 14 330 274 220 82 163 180 123 94 105 96 80 34 24 18 30 29 26 24 32 14 24 19 28 41
170 170 173 172 171 167 166 168 163 165 186 37 50 165 67 180 235 353 325 293 216 235 206 223 25 2 88 356 346 22 304 314 300 90 341 262 145 177 172 113 89 47 19 12 2 15 18 4 7 14 6 18 10 19
172 172 174 172 172 168 167 168 169 203 165 172 276 208 53 285 172 314 247 232 229 218 173 194 139 19 98 285 298 26 311 321 299 349 323 283 124 156 185 177 251 350 340 339 342 357 0 339 356 342 351 355 17 354
173 173 174 173 172 171 170 170 189 111 172 65 352 213 205 161 229 217 186 211 222 170 155 156 140 244 154 184 303 277 319 267 329 351 259 354 131 175 212 176 226 283 296 317 328 336 330 337 334 340 339 332 356 342
172 172 172 173 171 171 170 171 181 206 261 203 198 210 215 185 242 212 238 197 181 170 158 169 112 180 124 215 59 249 304 315 278 250 250 238 161 166 167 113 300 291 308 306 323 326 328 343 325 302 272 295 251 295
170 171 170 171 170 170 167 166 184 203 263 239 225 236 215 237 265 278 309 51 166 145 150 121 114 171 166 115 247 258 242 259 236 240 309 54 101 157 193 227 249 295 314 316 322 320 317 314 325 314 305 229 94 86
163 151 185 170 169 166 161 158 178 240 253 240 237 244 251 271 226 207 241 230 193 162 171 108 110 150 212 229 196 205 229 230 230 163 68 353 205 212 234 249 262 294 310 311 306 311 317 324 324 319 305 43 123 131
162 185 164 163 163 155 140 124 185 206 228 233 232 237 270 257 213 219 234 232 163 195 185 171 197 206 197 218 221 213 218 287 22 88 221 205 248 256 253 263 286 293 300 303 304 307 317 317 309 296 298 103 152 171
177 164 155 156 154 129 33 207 218 213 223 231 247 231 226 244 247 229 209 232 176 211 213 213 230 205 206 224 222 235 224 228 302 281 276 252 231 245 264 276 283 292 298 305 307 303 306 305 308 322 355 351 30 50
171 161 158 153 144 116 152 198 229 228 212 232 221 244 243 223 229 243 229 216 216 205 224 234 231 233 231 243 262 278 294 304 251 219 228 260 267 259 263 271 281 282 282 284 288 304 306 327 321 335 12 28 19 34
157 156 157 153 154 140 187 196 221 238 217 206 225 237 233 233 230 221 224 233 218 213 219 223 228 240 252 258 272 285 280 268 268 234 233 248 266 265 253 243 248 258 273 284 288 291 268 302 312 318 39 35 2 26
146 157 151 156 179 209 237 179 198 215 205 202 207 224 243 232 217 233 227 212 222 216 219 227 243 246 255 269 274 272 273 271 265 272 273 253 239 260 263 264 258 244 261 276 264 264 237 291 287 235 193 123 137 65
131 132 98 117 168 183 229 216 242 176 187 193 190 208 236 224 225 225 235 230 228 229 223 229 237 245 249 247 249 251 254 259 260 264 268 270 265 258 260 266 279 280 265 260 258 237 262 284 312 242 122 136 154 73
124 117 126 139 184 202 222 184 199 198 192 181 181 196 211 214 205 190 233 224 233 228 231 235 240 244 251 258 264 262 255 246 247 246 248 242 248 252 257 241 216 226 247 257 248 198 193 163 148 185 115 149 75 71
118 147 164 182 207 193 172 190 199 188 213 199 192 213 206 194 199 216 245 229 219 208 221 230 233 242 246 246 244 244 242 239 245 244 244 243 247 245 240 250 236 225 221 223 211 201 156 157 144 138 124 120 118 220
148 171 193 202 187 182 179 173 181 190 189 195 208 209 182 203 221 231 238 210 209 222 221 217 225 226 235 242 246 246 228 221 231 238 231 225 229 235 242 240 241 221 207 184 180 145 155 139 156 147 157 160 189 209
193 185 201 188 175 188 176 180 186 180 180 196 213 205 207 200 232 235 225 224 228 219 216 215 222 226 231 232 240 236 224 216 223 235 235 219 212 216 225 231 234 214 190 178 165 163 167 165 179 174 172 186 191 220
195 192 190 207 170 181 184 186 174 190 199 194 191 181 193 226 232 226 211 213 226 219 210 207 215 223 235 235 228 217 210 214 217 229 206 211 207 214 218 221 230 228 172 175 151 169 174 170 169 182 185 185 201 188
196 198 192 178 191 179 191 175 184 194 197 168 170 197 200 207 213 189 213 243 210 212 204 200 204 217 228 228 198 165 167 125 105 88 60 346 265 224 212 222 235 177 167 158 152 171 170 166 178 187 186 185 193 196
211 188 169 192 195 191 199 199 198 189 177 186 193 205 213 214 156 151 205 178 158 174 197 201 232 26 119 100 163 161 151 160 164 177 208 217 219 245 230 210 157 166 136 152 163 168 166 172 192 191 187 184 191 180
198 179 186 179 196 210 205 192 200 197 195 201 213 224 230 217 200 161 142 161 184 199 193 201 208 191 201 188 199 218 205 192 200 192 199 212 219 184 183 186 166 168 157 157 160 160 143 165 166 178 171 169 175 192
176 181 189 195 213 214 173 160 125 167 199 205 210 219 225 223 232 223 198 184 171 137 154 208 215 208 204 203 203 198 220 213 220 226 230 224 200 192 188 188 177 169 166 174 174 176 181 183 189 189 182 188 198 199
181 187 193 195 195 121 139 170 185 202 190 205 219 212 187 201 229 220 192 170 173 192 215 215 214 224 216 222 209 207 202 167 189 210 217 215 214 205 191 187 174 178 185 191 190 182 191 191 193 195 193 195 204 201
165 190 183 193 144 164 174 179 202 222 202 215 220 211 214 221 232 218 197 189 201 211 219 223 228 233 228 207 206 210 211 213 214 213 207 201 200 191 184 182 176 181 190 195 194 191 193 194 197 200 199 198 203 204